{"data":{"norad_id":57514,"intl_designator":"2023-113V","name":"STARLINK-30231","alt_names":[],"object_type":"PAYLOAD","status":"ACTIVE","operator":null,"country":"US","launch_date":"2023-08-07","launch_site_code":"AFETR","launch_vehicle":null,"mission":null,"orbit_class":"UNKNOWN","rcs_meters":null,"size_class":null,"mass_kg":null,"dimensions":null,"purposes":["comms"],"wikipedia_slug":null,"has_3d_model":false,"image_url":null,"decayed_at":null,"tle_current":{"epoch":"2026-05-24T17:14:51.210528Z","epoch_age_seconds":96454,"freshness":"FRESH","line1":"1 57514U 23113V   26144.71864827  .00001293  00000+0  56552-4 0  9993","line2":"2 57514  43.0031 306.6216 0001753 260.1773  99.8880 15.27563334155306","mean_motion":15.27563334,"eccentricity":0.0001753,"inclination_deg":43.0031,"raan_deg":306.6216,"arg_perigee_deg":260.1773,"mean_anomaly_deg":99.888,"bstar":5.6552e-5,"rev_number":15530,"period_min":94.267777181408,"perigee_km":481.89622582205,"apogee_km":484.30177516382,"semimajor_km":6861.2360004929,"source":"CELESTRAK","updated_at":"2026-05-25T13:38:18.330905Z"}}}